Hourly Weather Roundup
Issued by NWS Central Illinois

Home | Current Version | Previous Version | Text Only | Print | Product List | Glossary On
Versions: 1 2 3 4 5 6 7 8 9 10 11 12 13 14 15 16 17 18 19 20 21 22 23 24 25 26 27 28 29 30 31 32 33 34 35 36 37 38 39 40 41 42 43 44 45 46 47 48 49 50
106
NZUS43 KILX 301710
HWRILX

AREA WEATHER ROUNDUP
NATIONAL WEATHER SERVICE, LINCOLN IL
1200 PM CDT FRI SEP 30 2016


CITY           SKY/WX    TMP DP  RH WIND       PRES   REMARKS
BLOOMINGTON    LGT RAIN  62  60  93 N14       30.11S
CHAMPAIGN      CLOUDY    65  59  81 NE9       30.07F
DANVILLE       CLOUDY    65  60  84 NE12      30.03F
DECATUR        CLOUDY    64  59  83 N12       30.09S
EFFINGHAM      CLOUDY    64  61  91 NW7       30.08R
FLORA          PTSUNNY   69  60  74 N5        30.05F
GALESBURG      CLOUDY    62  57  83 N15       30.16F
JACKSONVILLE   CLOUDY    64  58  78 N10       30.13S
LACON          DRIZZLE   61  59  94 N7        30.13S
LAWRENCEVILLE  PTSUNNY   67  57  70 E7        30.04S
LITCHFIELD     CLOUDY    64  62  91 N8        30.10S
$$


CITY           SKY/WX    TMP DP  RH WIND       PRES   REMARKS
LINCOLN        CLOUDY    64  61  91 N8        30.11R
MACOMB         CLOUDY    62  57  83 N16       30.18F
MATTOON        CLOUDY    63  59  87 N12       30.05S
MT CARMEL AP   CLOUDY    66  55  68 NE3       30.03F
OLNEY-NOBLE AP PTSUNNY   64  61  88 N6        30.04F
PARIS          CLOUDY    65  60  85 CALM      30.05F
PEORIA         LGT RAIN  61  61 100 N7        30.14S FOG
PONTIAC        CLOUDY    64  64  98 NE13      30.12S
RANTOUL        CLOUDY    65  61  88 NE14      30.08F
ROBINSON       CLOUDY    66  58  74 N9        30.05S
SPRINGFIELD    CLOUDY    65  61  87 N12       30.11F
TAYLORVILLE    CLOUDY    64  60  90 N12       30.09F
$$

...REGIONAL REPORTS...


CITY           SKY/WX    TMP DP  RH WIND       PRES   REMARKS
CHICAGO O`HARE CLOUDY    63  60  90 NE14      30.14F
KANKAKEE       CLOUDY    63  60  93 NE9       30.11S
MOLINE         CLOUDY    64  56  75 N12       30.18F
MOUNT STERLING CLOUDY    61  56  83 N9        30.15S
MOUNT VERNON   CLOUDY    64  57  77 N6        30.07F
PITTSFIELD     CLOUDY    64  58  80 N10       30.14F
QUINCY         CLOUDY    63  56  78 N14       30.16R
ROCKFORD       CLOUDY    66  57  72 NE16G26   30.17F
$$


CITY           SKY/WX    TMP DP  RH WIND       PRES   REMARKS
BURLINGTON     CLOUDY    62  57  83 N13       30.18S
CEDAR RAPIDS   CLOUDY    62  57  83 NE10G21   30.22S
DES MOINES     CLOUDY    63  53  70 NE12      30.25F
KIRKSVILLE     PTSUNNY   67  55  65 N12       30.19F
OTTUMWA        CLOUDY    64  54  69 N9        30.21F
ST LOUIS       PTSUNNY   68  57  68 NW14      30.12S
$$


CITY           SKY/WX    TMP DP  RH WIND       PRES   REMARKS
TERRE HAUTE    CLOUDY    64  58  80 N6        30.04F
EVANSVILLE     CLOUDY    69  56  62 CALM      30.03F
INDIANAPOLIS   PTSUNNY   65  57  75 NE5       30.03F
LAFAYETTE      NOT AVBL
MADISON        CLOUDY    62  57  83 NE12      30.22S
MILWAUKEE      LGT RAIN  61  58  90 NE10      30.20F FOG
$$






USA.gov is the U.S. government's official web portal to all federal, state and local government web resources and services.